Time,TemperatureF,DewpointF,PressureIn,WindDirection,WindDirectionDegrees,WindSpeedMPH,WindSpeedGustMPH,Humidity,HourlyPrecipIn,Conditions,Clouds,dailyrainin,SoftwareType,DateUTC
2013-01-28 00:23:00,39.8,37.0,29.66,North,11,0.0,-999.0,89,-99.99,,,0.00,weatherlink.com 1.10,2013-01-28 07:23:00,
2013-01-28 00:38:00,39.1,36.0,29.68,North,11,0.0,-999.0,89,-99.99,,,0.00,weatherlink.com 1.10,2013-01-28 07:38:00,
2013-01-28 00:53:00,38.6,36.0,29.68,North,11,3.0,-999.0,90,-99.99,,,0.00,weatherlink.com 1.10,2013-01-28 07:53:00,
2013-01-28 01:08:00,38.6,36.0,29.66,North,11,0.0,-999.0,91,-99.99,,,0.01,weatherlink.com 1.10,2013-01-28 08:08:00,
2013-01-28 01:23:00,38.2,36.0,29.63,North,11,0.0,-999.0,91,-99.99,,,0.01,weatherlink.com 1.10,2013-01-28 08:23:00,
2013-01-28 01:38:00,38.3,36.0,29.62,North,11,0.0,-999.0,92,-99.99,,,0.02,weatherlink.com 1.10,2013-01-28 08:38:00,
2013-01-28 01:53:00,38.6,36.0,29.62,North,11,1.0,-999.0,91,-99.99,,,0.02,weatherlink.com 1.10,2013-01-28 08:53:00,
2013-01-28 02:08:00,38.8,37.0,29.61,North,11,3.0,-999.0,92,-99.99,,,0.02,weatherlink.com 1.10,2013-01-28 09:08:00,
2013-01-28 02:23:00,38.9,37.0,29.61,North,11,0.0,-999.0,92,-99.99,,,0.02,weatherlink.com 1.10,2013-01-28 09:23:00,
2013-01-28 02:38:00,40.3,38.0,29.60,NNW,330,3.0,-999.0,91,-99.99,,,0.02,weatherlink.com 1.10,2013-01-28 09:38:00,
2013-01-28 02:53:00,40.9,38.0,29.60,West,262,8.0,-999.0,88,-99.99,,,0.03,weatherlink.com 1.10,2013-01-28 09:53:00,
2013-01-28 03:08:00,40.3,38.0,29.60,West,269,4.0,-999.0,90,-99.99,,,0.03,weatherlink.com 1.10,2013-01-28 10:08:00,
2013-01-28 03:23:00,40.1,38.0,29.63,West,269,0.0,-999.0,90,-99.99,,,0.03,weatherlink.com 1.10,2013-01-28 10:23:00,
2013-01-28 03:38:00,39.9,38.0,29.62,West,269,0.0,-999.0,91,-99.99,,,0.03,weatherlink.com 1.10,2013-01-28 10:38:00,
2013-01-28 03:53:00,39.6,37.0,29.62,West,269,0.0,-999.0,91,-99.99,,,0.03,weatherlink.com 1.10,2013-01-28 10:53:00,
2013-01-28 04:08:00,39.3,37.0,29.60,West,269,0.0,-999.0,91,-99.99,,,0.03,weatherlink.com 1.10,2013-01-28 11:08:00,
2013-01-28 04:24:00,39.1,37.0,29.61,West,269,0.0,-999.0,92,-99.99,,,0.03,weatherlink.com 1.10,2013-01-28 11:24:00,
2013-01-28 04:38:00,38.6,37.0,29.61,West,269,2.0,-999.0,92,-99.99,,,0.03,weatherlink.com 1.10,2013-01-28 11:38:00,
2013-01-28 04:53:00,38.5,36.0,29.61,West,269,0.0,-999.0,92,-99.99,,,0.03,weatherlink.com 1.10,2013-01-28 11:53:00,
2013-01-28 05:08:00,38.2,36.0,29.61,West,269,1.0,-999.0,92,-99.99,,,0.04,weatherlink.com 1.10,2013-01-28 12:08:00,
2013-01-28 05:24:00,38.0,36.0,29.65,West,269,0.0,-999.0,93,-99.99,,,0.04,weatherlink.com 1.10,2013-01-28 12:24:00,
2013-01-28 05:38:00,37.8,36.0,29.65,West,269,0.0,-999.0,93,-99.99,,,0.04,weatherlink.com 1.10,2013-01-28 12:38:00,
2013-01-28 05:53:00,37.5,36.0,29.65,West,269,3.0,-999.0,93,-99.99,,,0.04,weatherlink.com 1.10,2013-01-28 12:53:00,
2013-01-28 06:08:00,37.0,35.0,29.65,West,269,1.0,-999.0,93,-99.99,,,0.04,weatherlink.com 1.10,2013-01-28 13:08:00,
2013-01-28 06:24:00,37.0,35.0,29.66,West,269,2.0,-999.0,93,-99.99,,,0.04,weatherlink.com 1.10,2013-01-28 13:24:00,
2013-01-28 06:38:00,37.0,35.0,29.66,West,269,2.0,-999.0,93,-99.99,,,0.04,weatherlink.com 1.10,2013-01-28 13:38:00,
2013-01-28 06:53:00,36.8,35.0,29.66,West,269,0.0,-999.0,93,-99.99,,,0.04,weatherlink.com 1.10,2013-01-28 13:53:00,
2013-01-28 07:09:00,36.6,35.0,29.66,West,269,0.0,-999.0,94,-99.99,,,0.04,weatherlink.com 1.10,2013-01-28 14:09:00,
2013-01-28 07:24:00,36.8,35.0,29.66,West,269,0.0,-999.0,94,-99.99,,,0.04,weatherlink.com 1.10,2013-01-28 14:24:00,
2013-01-28 07:39:00,36.8,35.0,29.68,West,269,3.0,-999.0,94,-99.99,,,0.08,weatherlink.com 1.10,2013-01-28 14:39:00,
2013-01-28 07:54:00,36.8,35.0,29.68,West,269,0.0,-999.0,94,-99.99,,,0.08,weatherlink.com 1.10,2013-01-28 14:54:00,
2013-01-28 08:09:00,36.8,35.0,29.67,West,269,0.0,-999.0,94,-99.99,,,0.09,weatherlink.com 1.10,2013-01-28 15:09:00,
2013-01-28 08:23:00,37.0,36.0,29.66,West,269,0.0,-999.0,94,-99.99,,,0.09,weatherlink.com 1.10,2013-01-28 15:23:00,
2013-01-28 08:39:00,37.3,36.0,29.66,West,269,0.0,-999.0,94,-99.99,,,0.09,weatherlink.com 1.10,2013-01-28 15:39:00,
2013-01-28 08:53:00,37.3,36.0,29.66,West,269,0.0,-999.0,94,-99.99,,,0.09,weatherlink.com 1.10,2013-01-28 15:53:00,
2013-01-28 09:08:00,37.3,36.0,29.67,West,269,0.0,-999.0,94,-99.99,,,0.10,weatherlink.com 1.10,2013-01-28 16:08:00,
2013-01-28 09:23:00,35.6,34.0,29.67,SSW,205,1.0,-999.0,94,-99.99,,,0.14,weatherlink.com 1.10,2013-01-28 16:23:00,
2013-01-28 09:38:00,36.3,35.0,29.68,SSW,210,3.0,-999.0,94,-99.99,,,0.14,weatherlink.com 1.10,2013-01-28 16:38:00,
2013-01-28 09:53:00,36.6,35.0,29.68,SSW,210,3.0,-999.0,93,-99.99,,,0.14,weatherlink.com 1.10,2013-01-28 16:53:00,
2013-01-28 10:08:00,36.2,34.0,29.67,SSW,210,5.0,-999.0,93,-99.99,,,0.15,weatherlink.com 1.10,2013-01-28 17:08:00,
2013-01-28 10:23:00,36.2,34.0,29.69,SSW,210,1.0,-999.0,93,-99.99,,,0.16,weatherlink.com 1.10,2013-01-28 17:23:00,
2013-01-28 10:38:00,37.5,36.0,29.68,SSW,210,3.0,-999.0,94,-99.99,,,0.16,weatherlink.com 1.10,2013-01-28 17:38:00,
2013-01-28 10:53:00,37.8,36.0,29.67,SSW,210,0.0,-999.0,93,-99.99,,,0.16,weatherlink.com 1.10,2013-01-28 17:53:00,
2013-01-28 11:08:00,37.3,35.0,29.66,West,266,6.0,-999.0,92,-99.99,,,0.16,weatherlink.com 1.10,2013-01-28 18:08:00,
2013-01-28 11:23:00,34.6,33.0,29.66,West,264,6.0,-999.0,92,-99.99,,,0.18,weatherlink.com 1.10,2013-01-28 18:23:00,
2013-01-28 11:38:00,32.8,31.0,29.68,West,267,5.0,-999.0,92,-99.99,,,0.18,weatherlink.com 1.10,2013-01-28 18:38:00,
2013-01-28 11:54:00,32.5,31.0,29.70,West,266,5.0,-999.0,93,-99.99,,,0.19,weatherlink.com 1.10,2013-01-28 18:54:00,
2013-01-28 12:09:00,32.5,31.0,29.69,West,269,3.0,-999.0,93,-99.99,,,0.19,weatherlink.com 1.10,2013-01-28 19:09:00,
2013-01-28 12:24:00,32.8,31.0,29.69,West,270,9.0,-999.0,94,-99.99,,,0.20,weatherlink.com 1.10,2013-01-28 19:24:00,
2013-01-28 12:39:00,33.7,32.0,29.69,West,271,3.0,-999.0,94,-99.99,,,0.20,weatherlink.com 1.10,2013-01-28 19:39:00,
2013-01-28 12:54:00,33.7,32.0,29.68,West,271,0.0,-999.0,94,-99.99,,,0.20,weatherlink.com 1.10,2013-01-28 19:54:00,
2013-01-28 13:09:00,33.8,32.0,29.69,West,271,5.0,-999.0,94,-99.99,,,0.21,weatherlink.com 1.10,2013-01-28 20:09:00,
2013-01-28 13:24:00,33.5,32.0,29.68,WNW,298,6.0,-999.0,93,-99.99,,,0.23,weatherlink.com 1.10,2013-01-28 20:24:00,
2013-01-28 13:39:00,34.3,33.0,29.67,WNW,298,2.0,-999.0,94,-99.99,,,0.24,weatherlink.com 1.10,2013-01-28 20:39:00,
2013-01-28 13:54:00,35.5,34.0,29.66,WNW,298,0.0,-999.0,93,-99.99,,,0.25,weatherlink.com 1.10,2013-01-28 20:54:00,
2013-01-28 14:09:00,35.3,33.0,29.66,WNW,295,3.0,-999.0,92,-99.99,,,0.26,weatherlink.com 1.10,2013-01-28 21:09:00,
2013-01-28 14:24:00,35.8,34.0,29.64,NW,309,3.0,-999.0,91,-99.99,,,0.27,weatherlink.com 1.10,2013-01-28 21:24:00,
2013-01-28 14:39:00,35.2,32.0,29.64,WNW,299,8.0,-999.0,88,-99.99,,,0.28,weatherlink.com 1.10,2013-01-28 21:39:00,
2013-01-28 14:54:00,34.3,31.0,29.65,NW,320,6.0,-999.0,87,-99.99,,,0.28,weatherlink.com 1.10,2013-01-28 21:54:00,
2013-01-28 15:09:00,33.1,30.0,29.68,WNW,282,7.0,-999.0,89,-99.99,,,0.28,weatherlink.com 1.10,2013-01-28 22:09:00,
2013-01-28 15:24:00,32.4,30.0,29.70,West,278,3.0,-999.0,91,-99.99,,,0.28,weatherlink.com 1.10,2013-01-28 22:24:00,
2013-01-28 15:39:00,33.1,31.0,29.71,West,278,2.0,-999.0,92,-99.99,,,0.29,weatherlink.com 1.10,2013-01-28 22:39:00,
2013-01-28 15:54:00,33.5,31.0,29.69,West,278,4.0,-999.0,91,-99.99,,,0.30,weatherlink.com 1.10,2013-01-28 22:54:00,
2013-01-28 16:09:00,33.5,31.0,29.69,West,278,4.0,-999.0,89,-99.99,,,0.30,weatherlink.com 1.10,2013-01-28 23:09:00,
2013-01-28 16:24:00,33.4,30.0,29.70,West,278,3.0,-999.0,88,-99.99,,,0.30,weatherlink.com 1.10,2013-01-28 23:24:00,
2013-01-28 16:40:00,33.1,30.0,29.70,West,278,1.0,-999.0,88,-99.99,,,0.31,weatherlink.com 1.10,2013-01-28 23:40:00,
2013-01-28 16:55:00,33.1,30.0,29.69,West,278,0.0,-999.0,87,-99.99,,,0.31,weatherlink.com 1.10,2013-01-28 23:55:00,
2013-01-28 17:09:00,32.9,30.0,29.69,West,278,0.0,-999.0,87,-99.99,,,0.31,weatherlink.com 1.10,2013-01-29 00:09:00,
2013-01-28 17:25:00,32.9,30.0,29.71,West,278,0.0,-999.0,88,-99.99,,,0.31,weatherlink.com 1.10,2013-01-29 00:25:00,
2013-01-28 17:40:00,32.4,29.0,29.71,West,278,0.0,-999.0,88,-99.99,,,0.31,weatherlink.com 1.10,2013-01-29 00:40:00,
2013-01-28 17:55:00,31.9,29.0,29.72,West,278,0.0,-999.0,89,-99.99,,,0.31,weatherlink.com 1.10,2013-01-29 00:55:00,
2013-01-28 18:11:00,31.6,29.0,29.72,West,278,0.0,-999.0,89,-99.99,,,0.31,weatherlink.com 1.10,2013-01-29 01:11:00,
2013-01-28 18:26:00,31.3,29.0,29.72,West,278,0.0,-999.0,90,-99.99,,,0.31,weatherlink.com 1.10,2013-01-29 01:26:00,
2013-01-28 18:40:00,31.0,29.0,29.72,West,278,1.0,-999.0,90,-99.99,,,0.31,weatherlink.com 1.10,2013-01-29 01:40:00,
2013-01-28 18:56:00,30.6,28.0,29.72,West,278,0.0,-999.0,90,-99.99,,,0.31,weatherlink.com 1.10,2013-01-29 01:56:00,
2013-01-28 19:10:00,30.3,28.0,29.72,West,278,0.0,-999.0,90,-99.99,,,0.31,weatherlink.com 1.10,2013-01-29 02:10:00,
2013-01-28 19:26:00,29.8,27.0,29.73,West,278,0.0,-999.0,90,-99.99,,,0.31,weatherlink.com 1.10,2013-01-29 02:26:00,
2013-01-28 19:41:00,29.8,27.0,29.74,West,278,0.0,-999.0,90,-99.99,,,0.31,weatherlink.com 1.10,2013-01-29 02:41:00,
2013-01-28 19:56:00,29.5,27.0,29.74,West,278,0.0,-999.0,91,-99.99,,,0.31,weatherlink.com 1.10,2013-01-29 02:56:00,
2013-01-28 20:11:00,29.5,27.0,29.74,West,278,0.0,-999.0,91,-99.99,,,0.31,weatherlink.com 1.10,2013-01-29 03:11:00,
2013-01-28 20:26:00,29.8,28.0,29.73,West,278,0.0,-999.0,91,-99.99,,,0.31,weatherlink.com 1.10,2013-01-29 03:26:00,
2013-01-28 20:41:00,29.8,28.0,29.73,West,278,0.0,-999.0,92,-99.99,,,0.31,weatherlink.com 1.10,2013-01-29 03:41:00,
2013-01-28 20:56:00,29.5,27.0,29.73,West,278,0.0,-999.0,91,-99.99,,,0.31,weatherlink.com 1.10,2013-01-29 03:56:00,
2013-01-28 21:11:00,29.4,27.0,29.73,West,278,0.0,-999.0,91,-99.99,,,0.31,weatherlink.com 1.10,2013-01-29 04:11:00,
2013-01-28 21:26:00,29.8,27.0,29.73,West,278,0.0,-999.0,90,-99.99,,,0.31,weatherlink.com 1.10,2013-01-29 04:26:00,
2013-01-28 21:41:00,29.8,27.0,29.73,West,278,1.0,-999.0,89,-99.99,,,0.31,weatherlink.com 1.10,2013-01-29 04:41:00,
2013-01-28 21:56:00,30.0,27.0,29.73,West,278,0.0,-999.0,88,-99.99,,,0.31,weatherlink.com 1.10,2013-01-29 04:56:00,
2013-01-28 22:11:00,29.7,27.0,29.73,West,278,0.0,-999.0,88,-99.99,,,0.31,weatherlink.com 1.10,2013-01-29 05:11:00,
2013-01-28 22:26:00,29.5,26.0,29.70,West,278,4.0,-999.0,88,-99.99,,,0.31,weatherlink.com 1.10,2013-01-29 05:26:00,
2013-01-28 22:41:00,29.5,26.0,29.70,West,278,1.0,-999.0,87,-99.99,,,0.31,weatherlink.com 1.10,2013-01-29 05:41:00,
2013-01-28 22:56:00,29.4,26.0,29.70,West,278,0.0,-999.0,87,-99.99,,,0.31,weatherlink.com 1.10,2013-01-29 05:56:00,
2013-01-28 23:11:00,29.1,26.0,29.71,West,278,0.0,-999.0,87,-99.99,,,0.31,weatherlink.com 1.10,2013-01-29 06:11:00,
2013-01-28 23:26:00,29.1,26.0,29.74,West,278,3.0,-999.0,87,-99.99,,,0.31,weatherlink.com 1.10,2013-01-29 06:26:00,
2013-01-28 23:42:00,29.5,26.0,29.74,West,277,6.0,-999.0,85,-99.99,,,0.31,weatherlink.com 1.10,2013-01-29 06:42:00,
2013-01-28 23:56:00,29.7,25.0,29.74,West,276,3.0,-999.0,84,-99.99,,,0.31,weatherlink.com 1.10,2013-01-29 06:56:00,